User: anonymous   Login
Location: Unspecified
(0.0000°N, 0.0000°E)
Time: 20:20:43
(UTC+00:00)
Language:

USA 8 - Orbit

View from above orbital plane
View from above orbital plane
View from above satellite
View from above satellite

Ground track
Ground track

The orbit data is extracted from the following two-line orbital elements,

1 15543U 85010B   17302.80597948 0.00000000  00000-0  00000-0 0    08
2 15543  17.4621 347.2308 0127051 323.0065  36.1360  0.99810948    00
Epoch (UTC): 29 October 2017 19:20:36
Eccentricity: 0.0127051
inclination: 17.4621°
perigee height: 35378 km
apogee height: 36453 km
right ascension of ascending node: 347.2308°
argument of perigee: 323.0065°
revolutions per day: 0.99810948
mean anomaly at epoch: 36.1360°
orbit number at epoch: 0

The dashed part of the orbit path shows where the satellite is in the earth's shadow,  

DLR